カタログに戻る

STARLINK-3458

運用中通信VLEO
NORAD 51758·PAYLOAD·🇺🇸 United States

打ち上げ Feb 21, 2022 から Cape Canaveral Space Force Station

Loading…

次のパス (今後24時間)

TLE

最新Source: CelesTrak SupGP

元期: Sep 15, 2026, 00:54 UTC

1 51758C 22016AW  26258.03798611 -.00010447  00000+0 -29892-3 0  2583
2 51758  53.1573 165.0170 0001281  84.8364 342.0264 15.35401509    12

AllMySatでSTARLINK-3458をリアルタイム追跡

Download on the App Store